Augusta, ME

12:12 AM EDT on April 30, 2017 (GMT -0400)
Augusta State

Weather History for KAUG - October, 2013

Change the Weather History Date:

Thursday, October 31, 2013

  Actual Average Record
Temperature  
Mean Temperature 41 °F 43 °F  
Max Temperature 55 °F 51 °F 69 °F (1956)
Min Temperature 27 °F 35 °F 22 °F (2002)
Degree Days  
Heating Degree Days 24 22  
Month to date heating degree days 515  
Since 1 July heating degree days 735  
Cooling Degree Days 0 0  
Month to date cooling degree days 1  
Year to date cooling degree days 388  
Moisture  
Dew Point 42 °F    
Average Humidity 91    
Maximum Humidity 100    
Minimum Humidity 73    
Precipitation  
Precipitation 0.28 in 0.14 in 2.35 in (1955)
Month to date precipitation 4.36  
Year to date precipitation 34.28  
Sea Level Pressure  
Sea Level Pressure 30.04 in    
Wind  
Wind Speed 3 mph (South)    
Max Wind Speed 13 mph    
Max Gust Speed 23 mph    
Visibility 6 miles    
Events Fog , Rain    
T = Trace of Precipitation, MM = Missing Value Source: NWS Daily Summary

Daily Weather History Graph

Daily Weather History Graph

Search for Another Location

Airport or City:

Trip Planner

Search our weather history database for the weather conditions in past years. The results will help you decide how hot, cold, wet, or windy it might be!

Date:

Astronomy

Oct. 31, 2013 Rise Set
Actual Time 7:15 AM EDT 5:29 PM EDT
Civil Twilight 6:45 AM EDT 5:59 PM EDT
Nautical Twilight 6:10 AM EDT 6:34 PM EDT
Astronomical Twilight 5:37 AM EDT 7:07 PM EDT
Moon 3:54 AM EDT (10/31) 3:51 PM EDT (10/31)
Length of Visible Light 11h 14m
Length of Day
10h 14m
Waning Crescent, 10% of the Moon is Illuminated
Oct 31
Waning Crescent
Nov 3
New
Nov 10
First Quarter
Nov 17
Full
Nov 25
Last Quarter

Hourly Weather History & Observations

Time (EDT) Temp. Windchill Dew Point Humidity Pressure Visibility Wind Dir Wind Speed Gust Speed Precip Events Conditions
12:53 AM 32.0 °F - 26.1 °F 79% 30.25 in 10.0 mi Calm Calm - N/A   Clear
1:53 AM 32.0 °F - 26.1 °F 79% 30.24 in 10.0 mi Calm Calm - N/A   Clear
2:53 AM 28.9 °F - 25.0 °F 85% 30.23 in 10.0 mi Calm Calm - N/A   Clear
3:53 AM 30.9 °F - 26.1 °F 82% 30.23 in 10.0 mi Calm Calm - N/A   Clear
4:53 AM 28.0 °F - 26.1 °F 92% 30.22 in 10.0 mi Calm Calm - N/A   Clear
5:53 AM 28.9 °F 25.2 °F 26.1 °F 89% 30.24 in 10.0 mi South 3.5 mph - N/A   Partly Cloudy
6:53 AM 30.0 °F - 26.1 °F 85% 30.22 in 10.0 mi Calm Calm - N/A   Clear
7:53 AM 27.0 °F - 25.0 °F 92% 30.22 in 10.0 mi Calm Calm - N/A   Clear
8:53 AM 34.0 °F - 28.9 °F 82% 30.23 in 10.0 mi Calm Calm - N/A   Partly Cloudy
9:53 AM 37.9 °F - 30.0 °F 73% 30.22 in 10.0 mi Calm Calm - N/A   Overcast
10:53 AM 41.0 °F - 33.1 °F 73% 30.19 in 10.0 mi Calm Calm - N/A   Overcast
11:53 AM 43.0 °F - 35.1 °F 74% 30.17 in 10.0 mi Calm Calm - N/A   Overcast
12:48 PM 44.6 °F 43.1 °F 37.4 °F 76% 30.12 in 10.0 mi South 3.5 mph - N/A   Overcast
12:53 PM 44.1 °F 42.5 °F 37.9 °F 79% 30.13 in 9.0 mi SSE 3.5 mph - N/A   Overcast
1:53 PM 44.1 °F - 41.0 °F 89% 30.09 in 4.0 mi Calm Calm - 0.00 in Rain Light Rain
2:38 PM 44.6 °F - 42.8 °F 93% 30.04 in 3.0 mi Calm Calm - 0.01 in Rain Light Rain
2:53 PM 45.0 °F - 43.0 °F 93% 30.04 in 4.0 mi Calm Calm - 0.02 in Rain Light Rain
3:28 PM 44.6 °F 43.1 °F 44.6 °F 100% 30.01 in 1.8 mi SSE 3.5 mph - 0.00 in   Overcast
3:39 PM 46.4 °F 43.5 °F 44.6 °F 93% 30.00 in 0.8 mi South 5.8 mph - 0.00 in   Overcast
3:53 PM 46.9 °F - 46.0 °F 97% 30.01 in 0.8 mi SSE 8.1 mph - 0.00 in Rain Light Rain
4:08 PM 46.4 °F 41.9 °F 46.4 °F 100% 29.98 in 0.2 mi SSE 9.2 mph - 0.01 in Fog , Rain Light Rain
4:44 PM 50.0 °F - 48.2 °F 94% 29.97 in 0.8 mi South 6.9 mph - 0.05 in Rain Rain
4:51 PM 50.0 °F - 50.0 °F 100% 29.97 in 1.2 mi South 8.1 mph - 0.07 in Rain Light Rain
4:53 PM 50.0 °F - 50.0 °F 100% 29.98 in 1.5 mi South 9.2 mph - 0.07 in Rain Light Rain
5:04 PM 50.0 °F - 50.0 °F 100% 29.96 in 2.0 mi South 11.5 mph 17.3 mph 0.01 in Rain Light Rain
5:36 PM 51.8 °F - 51.8 °F 100% 29.94 in 4.0 mi South 10.4 mph - 0.06 in Rain Light Rain
5:53 PM 52.0 °F - 51.1 °F 97% 29.95 in 5.0 mi South 9.2 mph 23.0 mph 0.07 in Rain Light Rain
6:53 PM 53.1 °F - 52.0 °F 96% 29.93 in 6.0 mi South 12.7 mph 18.4 mph 0.02 in Rain Light Rain
7:53 PM 53.1 °F - 52.0 °F 96% 29.90 in 4.0 mi South 8.1 mph - 0.04 in Rain Light Rain
8:32 PM 53.6 °F - 53.6 °F 100% 29.86 in 2.5 mi South 8.1 mph 17.3 mph 0.01 in Rain Light Rain
8:53 PM 54.0 °F - 53.1 °F 97% 29.85 in 3.0 mi SSW 8.1 mph 19.6 mph 0.01 in Rain Light Rain
9:53 PM 55.0 °F - 55.0 °F 100% 29.82 in 7.0 mi South 11.5 mph 18.4 mph 0.02 in Rain Light Rain
10:53 PM 55.9 °F - 55.0 °F 97% 29.79 in 4.0 mi SSW 10.4 mph 20.7 mph 0.01 in Rain Light Rain
11:33 PM 55.4 °F - 55.4 °F 100% 29.77 in 2.5 mi South 8.1 mph 17.3 mph 0.01 in Rain Light Rain
11:41 PM 55.4 °F - 55.4 °F 100% 29.76 in 3.0 mi South 8.1 mph 19.6 mph 0.01 in Rain Light Rain
11:53 PM 55.9 °F - 55.9 °F 100% 29.76 in 3.0 mi South 8.1 mph 16.1 mph 0.02 in Rain Light Rain